User: anonymous   Login
Location: Unspecified
(0.0000°N, 0.0000°E)
Time: 13:14:09
(UTC+00:00)
Language:

IGS R-6 - Orbit

View from above orbital plane
View from above orbital plane
View from above satellite
View from above satellite

Ground track
Ground track

The orbit data is extracted from the following two-line orbital elements,

1 43495U 18052A   20249.00340665 0.00000000  00000-0  00000-0 0    05
2 43495  97.3349   3.2343 0006577  52.4912 307.5087 15.25980093    07
Epoch (UTC): 05 September 2020 00:04:54
Eccentricity: 0.0006577
inclination: 97.3349°
perigee height: 483 km
apogee height: 492 km
right ascension of ascending node: 3.2343°
argument of perigee: 52.4912°
revolutions per day: 15.25980093
mean anomaly at epoch: 307.5087°
orbit number at epoch: 0

The dashed part of the orbit path shows where the satellite is in the earth's shadow,  

DLR